Vorticity
10 3 1 5 2 3 1 3 3 2 5 4 4 4 3 8 9 8 3 4 4 3 4 6 9 10 10 9 7 15 4 7 11 -3 7 4 8 3 4 5 5 5 5
6 5 3 3 4 3 2 4 3 2 4 4 4 5 5 7 9 9 4 4 3 3 3 4 7 8 9 9 7 6 13 4 -2 0 4 6 4 4 4 4 4 4 5
10 4 3 4 3 4 4 3 2 3 3 2 2 3 4 6 8 9 6 4 5 2 2 3 5 8 8 8 9 7 8 6 7 4 3 6 6 5 4 5 5 5 5
5 4 8 4 5 4 4 3 3 3 1 3 3 4 5 3 5 8 8 4 6 3 2 2 3 6 8 8 8 7 7 7 7 4 8 8 6 5 5 4 4 5 5
3 2 5 3 4 5 5 4 4 3 1 2 2 4 2 2 4 7 9 6 3 4 3 3 3 4 5 8 7 6 6 6 6 6 7 6 6 6 5 6 6 5 5
2 5 10 4 3 3 4 5 5 3 2 1 2 3 1 4 3 5 7 9 5 4 3 3 3 3 4 6 6 7 6 5 5 5 5 5 5 5 6 6 5 5 6
5 7 1 6 6 6 4 4 4 5 4 3 2 3 2 4 5 2 2 5 7 4 4 4 3 3 3 4 5 6 6 6 6 5 5 4 4 4 4 4 4 4 4
4 4 5 5 4 5 9 3 6 4 3 3 5 5 2 2 3 1 2 3 5 4 5 5 4 3 3 4 4 4 5 6 6 6 6 5 5 5 5 5 4 5 5
6 4 4 4 7 9 7 7 5 4 4 2 1 2 5 4 6 3 3 3 5 6 5 5 4 3 2 3 4 4 5 5 6 7 7 7 7 6 6 6 6 6 7
4 4 7 10 11 9 7 8 4 6 7 5 4 4 3 5 2 2 2 1 5 7 6 5 5 5 2 1 3 4 4 5 5 5 6 6 7 7 6 6 7 7 7
7 6 5 5 5 7 10 8 3 4 4 5 6 6 4 3 1 1 1 0 1 7 7 6 6 5 6 3 3 3 3 4 4 4 4 5 5 6 5 5 5 6 7
5 4 4 5 5 5 7 8 11 9 3 3 3 4 3 2 1 1 1 1 1 5 4 5 5 7 7 7 5 4 3 2 4 4 4 4 4 4 4 4 4 4 5
6 6 6 6 6 6 6 6 6 7 9 8 5 4 3 3 3 2 2 2 2 3 5 2 2 2 3 5 7 5 4 3 3 4 4 4 4 4 3 3 3 2 3
5 5 5 5 4 5 5 5 5 5 5 7 8 8 8 7 5 2 1 3 6 7 7 4 1 2 4 4 5 5 5 5 4 5 4 4 4 4 4 3 3 3 2
7 6 6 6 6 5 4 4 4 4 4 5 5 5 6 7 8 10 12 8 7 4 5 6 5 3 3 5 4 2 3 4 4 4 4 4 4 4 4 4 4 4 4
5 5 5 5 5 5 6 6 5 5 5 5 5 5 5 6 6 5 6 9 12 5 6 8 7 4 4 4 3 2 6 6 5 5 4 4 5 5 5 4 4 4 4
4 4 4 4 5 5 5 6 6 6 6 6 5 5 5 5 5 5 5 7 6 12 8 6 6 6 7 4 4 5 6 7 7 6 5 6 5 5 6 4 4 6 5
4 5 5 5 5 5 5 5 5 5 5 5 5 5 5 5 5 5 5 5 6 8 10 6 1 7 6 5 4 7 4 10 10 6 8 6 5 6 7 5 6 5 5
4 4 5 5 6 7 9 9 9 9 9 9 8 8 8 7 7 6 6 7 6 5 7 10 7 1 2 4 6 5 5 6 8 6 7 7 8 6 6 6 6 5 5
4 6 8 10 10 10 9 9 9 10 10 10 10 10 11 11 9 8 9 8 7 10 7 7 12 8 2 4 6 6 1 11 6 1 12 9 6 7 7 5 6 7 16
12 11 8 8 9 10 11 13 16 16 17 17 18 18 17 18 17 12 9 11 11 11 12 9 0 16 13 3 4 5 6 5 4 3 5 6 8 5 8 7 20 27 32
9 11 13 15 17 17 17 14 12 12 12 13 14 16 17 18 19 17 19 17 10 11 11 16 10 0 5 5 17 9 10 8 4 0 7 4 4 5 8 11 13 16 -10
17 20 19 16 14 14 17 20 20 17 14 8 8 8 11 12 13 15 17 17 14 13 13 16 17 13 11 2 14 4 11 9 9 6 5 9 4 3 8 12 11 10 6
9 11 13 12 11 10 8 6 6 7 9 10 12 10 11 17 22 23 21 21 22 19 12 13 16 17 14 15 -1 5 7 9 6 11 9 2 9 9 15 10 7 9 2
7 5 6 6 7 11 13 13 12 6 10 7 10 10 16 16 14 14 17 17 20 26 19 11 12 19 16 14 17 7 6 9 8 9 10 8 6 13 11 12 9 5 4
5 5 6 6 9 11 10 9 15 10 6 11 9 12 13 9 9 9 10 17 18 21 21 18 15 16 18 17 16 19 3 11 -2 8 9 6 5 7 4 7 1 6 6
Height
3183 3184 3184 3184 3184 3185 3185 3185 3186 3186 3186 3186 3186 3186 3185 3184 3184 3184 3184 3184 3184 3183 3182 3181 3180 3180 3179 3179 3179 3179 3179 3180 3181 3179 3180 3180 3180 3180 3180 3180 3180 3180 3180
3182 3183 3184 3184 3185 3185 3185 3185 3186 3186 3186 3186 3186 3186 3185 3185 3185 3184 3185 3184 3184 3183 3183 3182 3180 3180 3179 3179 3179 3179 3179 3179 3179 3179 3179 3180 3180 3180 3180 3180 3179 3179 3179
3182 3183 3183 3184 3184 3185 3185 3185 3186 3186 3186 3186 3186 3186 3186 3185 3185 3184 3184 3184 3184 3184 3183 3182 3181 3180 3180 3179 3179 3179 3179 3180 3180 3179 3179 3179 3179 3180 3180 3179 3179 3179 3178
3181 3182 3182 3183 3184 3184 3184 3184 3185 3186 3186 3186 3186 3186 3186 3185 3184 3184 3184 3184 3184 3184 3183 3183 3182 3181 3180 3179 3178 3178 3178 3178 3178 3179 3179 3179 3179 3179 3178 3178 3178 3178 3177
3180 3180 3181 3182 3182 3182 3182 3183 3184 3184 3184 3185 3185 3185 3185 3185 3184 3184 3183 3183 3183 3184 3184 3183 3183 3182 3181 3179 3178 3178 3178 3178 3178 3178 3178 3178 3178 3178 3177 3177 3177 3176 3176
3178 3179 3180 3180 3180 3181 3181 3182 3182 3182 3183 3183 3184 3183 3184 3184 3184 3184 3183 3183 3183 3183 3183 3183 3183 3182 3181 3180 3179 3178 3177 3177 3177 3177 3177 3177 3177 3177 3177 3176 3176 3175 3174
3176 3177 3177 3177 3178 3178 3179 3180 3180 3181 3181 3181 3182 3182 3182 3183 3183 3183 3182 3182 3182 3182 3182 3182 3182 3181 3181 3180 3180 3179 3177 3176 3176 3175 3175 3175 3175 3175 3175 3174 3174 3173 3173
3174 3175 3175 3176 3176 3176 3177 3177 3178 3179 3178 3179 3179 3180 3180 3181 3181 3181 3181 3181 3180 3180 3180 3180 3180 3180 3179 3179 3179 3178 3177 3176 3175 3175 3174 3173 3172 3172 3172 3171 3171 3171 3171
3171 3171 3172 3173 3173 3173 3174 3174 3174 3175 3175 3176 3176 3177 3178 3178 3178 3178 3178 3178 3178 3178 3178 3178 3178 3178 3177 3177 3177 3177 3176 3175 3174 3173 3173 3173 3171 3170 3169 3169 3168 3168 3168
3168 3169 3169 3169 3169 3170 3169 3170 3171 3171 3172 3173 3173 3173 3174 3174 3174 3175 3175 3175 3175 3174 3175 3175 3175 3175 3175 3175 3175 3175 3174 3174 3173 3172 3171 3170 3170 3169 3168 3167 3166 3165 3165
3167 3167 3166 3166 3166 3166 3167 3167 3168 3168 3169 3169 3169 3170 3170 3170 3170 3170 3171 3171 3171 3171 3171 3171 3171 3171 3171 3172 3171 3171 3171 3171 3170 3170 3169 3168 3167 3167 3166 3165 3165 3165 3164
3164 3164 3164 3164 3164 3164 3164 3164 3164 3164 3164 3164 3164 3165 3165 3165 3166 3165 3166 3166 3166 3166 3166 3166 3166 3166 3166 3167 3167 3167 3168 3167 3167 3166 3166 3165 3165 3164 3164 3163 3162 3162 3162
3162 3161 3162 3161 3161 3161 3160 3160 3159 3159 3159 3159 3159 3158 3158 3159 3159 3159 3160 3160 3160 3160 3161 3161 3161 3161 3162 3162 3161 3162 3163 3163 3163 3163 3162 3162 3162 3161 3161 3161 3160 3160 3159
3158 3158 3157 3157 3157 3156 3155 3155 3154 3154 3153 3153 3153 3153 3152 3152 3152 3153 3153 3153 3153 3154 3154 3155 3155 3156 3156 3156 3156 3156 3156 3157 3157 3157 3158 3157 3157 3157 3158 3157 3157 3157 3157
3154 3154 3153 3152 3152 3151 3150 3149 3149 3148 3148 3147 3147 3146 3145 3145 3145 3146 3146 3146 3146 3145 3146 3147 3147 3148 3149 3149 3150 3150 3150 3151 3151 3152 3152 3153 3153 3153 3153 3154 3153 3153 3153
3149 3149 3148 3147 3147 3146 3145 3144 3143 3142 3141 3141 3141 3140 3139 3138 3138 3137 3137 3138 3139 3138 3138 3139 3139 3140 3140 3141 3142 3143 3143 3143 3144 3145 3146 3146 3147 3147 3148 3148 3148 3149 3149
3144 3143 3142 3142 3141 3140 3138 3137 3136 3135 3133 3133 3132 3131 3130 3128 3127 3127 3127 3128 3129 3131 3131 3130 3131 3131 3132 3133 3134 3135 3136 3136 3137 3138 3138 3139 3140 3140 3141 3141 3142 3142 3142
3139 3138 3137 3136 3135 3133 3131 3129 3127 3126 3124 3123 3121 3121 3119 3118 3116 3116 3116 3117 3118 3119 3120 3120 3121 3122 3123 3124 3126 3127 3127 3127 3129 3129 3130 3131 3132 3133 3134 3134 3135 3135 3135
3132 3131 3130 3128 3125 3123 3122 3119 3117 3116 3114 3112 3111 3110 3109 3107 3106 3104 3104 3105 3106 3107 3108 3110 3111 3112 3113 3115 3117 3118 3118 3119 3119 3119 3121 3122 3124 3124 3125 3126 3127 3127 3127
3124 3122 3121 3119 3116 3114 3112 3110 3108 3106 3104 3102 3100 3099 3098 3097 3096 3094 3093 3092 3093 3093 3094 3096 3098 3101 3102 3105 3107 3108 3109 3108 3110 3110 3112 3113 3115 3117 3118 3118 3118 3118 3118
3118 3116 3113 3111 3108 3105 3103 3101 3099 3097 3095 3093 3091 3089 3087 3087 3086 3084 3082 3080 3080 3081 3083 3085 3086 3087 3090 3094 3096 3097 3101 3102 3100 3103 3106 3108 3109 3110 3110 3111 3109 3110 3106
3113 3110 3107 3103 3100 3096 3093 3091 3088 3087 3087 3085 3083 3080 3078 3076 3074 3073 3072 3070 3068 3069 3070 3072 3074 3077 3078 3083 3086 3088 3088 3092 3094 3098 3099 3101 3103 3102 3103 3104 3102 3099 3102
3106 3103 3099 3095 3092 3089 3086 3083 3081 3079 3078 3076 3074 3072 3069 3066 3063 3060 3058 3057 3056 3055 3057 3060 3062 3065 3068 3072 3076 3079 3079 3080 3084 3089 3091 3092 3094 3094 3095 3095 3095 3096 3096
3100 3097 3094 3090 3087 3084 3081 3078 3076 3074 3072 3068 3066 3063 3060 3057 3054 3052 3050 3048 3047 3047 3047 3049 3051 3053 3057 3060 3066 3069 3071 3072 3074 3077 3081 3083 3085 3086 3087 3087 3088 3089 3090
3096 3093 3090 3086 3083 3079 3075 3072 3069 3067 3064 3062 3058 3054 3050 3049 3047 3045 3043 3041 3039 3039 3039 3040 3041 3043 3046 3050 3054 3059 3063 3065 3066 3068 3071 3074 3075 3077 3077 3078 3077 3080 3080
3093 3090 3087 3082 3078 3074 3069 3065 3062 3060 3057 3055 3051 3047 3044 3043 3041 3039 3037 3035 3033 3032 3032 3031 3032 3035 3038 3041 3044 3048 3052 3056 3060 3061 3063 3066 3066 3067 3068 3061 3066 3069 3071